Crossville, TN

10:15 AM CST on February 25, 2017 (GMT -0600)
Crossville Memorial-Whitson

Weather History for KCSV - December, 2013

Change the Weather History Date:

Monday, December 9, 2013

  Actual Average Record
Temperature  
Mean Temperature 41 °F 40 °F  
Max Temperature 49 °F 48 °F 68 °F (2007)
Min Temperature 32 °F 31 °F 6 °F (1995)
Degree Days  
Heating Degree Days 24    
Month to date heating degree days 182  
Since 1 July heating degree days 1092  
Cooling Degree Days 0    
Month to date cooling degree days 0  
Year to date cooling degree days 922  
Moisture  
Dew Point 39 °F    
Average Humidity 89    
Maximum Humidity 96    
Minimum Humidity 82    
Precipitation  
Precipitation 0.15 in 0.17 in 2.61 in (2004)
Month to date precipitation 3.06 1.58  
Year to date precipitation 57.49 51.72  
Sea Level Pressure  
Sea Level Pressure 30.11 in    
Wind  
Wind Speed 6 mph (NW)    
Max Wind Speed 14 mph    
Max Gust Speed 18 mph    
Visibility 6 miles    
Events Rain    
T = Trace of Precipitation, MM = Missing Value Source: NWS Daily Summary

Daily Weather History Graph

Daily Weather History Graph

Search for Another Location

Airport or City:

Trip Planner

Search our weather history database for the weather conditions in past years. The results will help you decide how hot, cold, wet, or windy it might be!

Date:

Astronomy

Dec. 09, 2013 Rise Set
Actual Time 6:39 AM CST 4:26 PM CST
Civil Twilight 6:10 AM CST 4:54 PM CST
Nautical Twilight 5:38 AM CST 5:26 PM CST
Astronomical Twilight 5:07 AM CST 5:57 PM CST
Moon 11:43 AM CST (12/9) No Moon Set
Length of Visible Light 10h 43m
Length of Day
9h 47m
Waxing Crescent, 51% of the Moon is Illuminated
Dec 9
Waxing Crescent
Dec 17
Full
Dec 25
Last Quarter
Jan 1
New
Jan 7
First Quarter

Hourly Weather History & Observations

Time (CST) Temp. Windchill Dew Point Humidity Pressure Visibility Wind Dir Wind Speed Gust Speed Precip Events Conditions
12:53 AM 48.0 °F - 46.9 °F 96% 30.07 in 3.0 mi Variable 5.8 mph - 0.01 in   Overcast
1:00 AM 48.2 °F - 46.4 °F 93% 30.06 in 2.0 mi Variable 4.6 mph - 0.03 in Rain Rain
1:13 AM 48.2 °F - 46.4 °F 93% 30.06 in 8.0 mi SSW 6.9 mph - 0.04 in Rain Light Rain
1:40 AM 48.2 °F - 46.4 °F 93% 30.06 in 2.5 mi Variable 5.8 mph - 0.06 in Rain Light Rain
1:53 AM 48.0 °F - 46.0 °F 93% 30.06 in 3.0 mi Variable 6.9 mph - 0.06 in Rain Light Rain
2:06 AM 48.2 °F - 46.4 °F 93% 30.06 in 2.0 mi SW 3.5 mph - 0.01 in Rain Light Rain
2:20 AM 48.2 °F - 46.4 °F 93% 30.06 in 4.0 mi Variable 3.5 mph - 0.01 in   Overcast
2:43 AM 48.2 °F - 46.4 °F 93% 30.06 in 3.0 mi SSW 3.5 mph - 0.01 in   Overcast
2:53 AM 48.0 °F - 46.0 °F 93% 30.07 in 3.0 mi WSW 3.5 mph - 0.01 in   Overcast
3:04 AM 48.2 °F - 46.4 °F 93% 30.06 in 2.0 mi West 3.5 mph - 0.01 in   Overcast
3:23 AM 48.2 °F - 46.4 °F 93% 30.07 in 4.0 mi SW 3.5 mph - 0.01 in   Overcast
3:44 AM 48.2 °F - 46.4 °F 93% 30.07 in 2.5 mi Variable 3.5 mph - 0.01 in   Overcast
3:53 AM 48.0 °F - 46.9 °F 96% 30.06 in 3.0 mi WSW 3.5 mph - 0.01 in   Overcast
4:03 AM 46.4 °F 41.9 °F 44.6 °F 93% 30.07 in 2.5 mi West 9.2 mph - N/A   Overcast
4:34 AM 44.6 °F 40.7 °F 42.8 °F 93% 30.07 in 3.0 mi West 6.9 mph - 0.01 in   Overcast
4:53 AM 44.1 °F 39.0 °F 42.1 °F 93% 30.08 in 10.0 mi West 9.2 mph - 0.01 in Rain Light Rain
5:16 AM 44.6 °F 39.2 °F 41.0 °F 87% 30.10 in 10.0 mi West 10.4 mph - N/A   Overcast
5:27 AM 42.8 °F 37.5 °F 41.0 °F 93% 30.10 in 5.0 mi West 9.2 mph - 0.01 in Rain Light Rain
5:53 AM 42.1 °F 36.6 °F 39.9 °F 92% 30.12 in 5.0 mi West 9.2 mph - 0.01 in   Overcast
6:04 AM 42.8 °F 39.3 °F 39.2 °F 87% 30.11 in 5.0 mi West 5.8 mph - 0.01 in   Overcast
6:53 AM 41.0 °F 37.1 °F 39.0 °F 93% 30.14 in 10.0 mi WNW 5.8 mph - 0.01 in   Overcast
7:02 AM 41.0 °F 37.1 °F 39.2 °F 93% 30.13 in 10.0 mi WNW 5.8 mph - N/A   Overcast
7:33 AM 41.0 °F 39.0 °F 39.2 °F 93% 30.13 in 10.0 mi WNW 3.5 mph - N/A   Overcast
7:53 AM 39.9 °F 37.8 °F 37.9 °F 93% 30.14 in 10.0 mi NW 3.5 mph - N/A   Overcast
8:37 AM 41.0 °F 39.0 °F 37.4 °F 87% 30.14 in 10.0 mi WNW 3.5 mph - N/A   Overcast
8:53 AM 41.0 °F 38.0 °F 37.9 °F 89% 30.15 in 10.0 mi WNW 4.6 mph - N/A   Overcast
9:01 AM 41.0 °F 37.1 °F 37.4 °F 87% 30.15 in 10.0 mi WNW 5.8 mph - N/A   Overcast
9:23 AM 41.0 °F 37.1 °F 37.4 °F 87% 30.15 in 10.0 mi WNW 5.8 mph - N/A   Overcast
9:53 AM 41.0 °F 36.4 °F 37.9 °F 89% 30.17 in 10.0 mi WNW 6.9 mph - N/A   Overcast
10:14 AM 39.2 °F 37.0 °F 37.4 °F 93% 30.16 in 10.0 mi Variable 3.5 mph - N/A   Overcast
10:53 AM 41.0 °F 38.0 °F 37.9 °F 89% 30.17 in 10.0 mi WNW 4.6 mph - N/A   Overcast
11:53 AM 42.1 °F 39.2 °F 37.9 °F 85% 30.14 in 10.0 mi SSW 4.6 mph - N/A   Overcast
12:00 PM 42.8 °F - 37.4 °F 81% 30.13 in 10.0 mi Calm Calm - N/A   Overcast
12:53 PM 44.1 °F 41.5 °F 39.0 °F 82% 30.11 in 10.0 mi NW 4.6 mph - N/A   Overcast
1:18 PM 42.8 °F 39.3 °F 39.2 °F 87% 30.11 in 10.0 mi WNW 5.8 mph - N/A   Scattered Clouds
1:30 PM 42.8 °F 38.0 °F 39.2 °F 87% 30.12 in 10.0 mi NW 8.1 mph - N/A   Mostly Cloudy
1:37 PM 42.8 °F 38.0 °F 37.4 °F 81% 30.12 in 10.0 mi WNW 8.1 mph - N/A   Mostly Cloudy
1:53 PM 42.1 °F 36.1 °F 37.9 °F 85% 30.13 in 10.0 mi West 10.4 mph - N/A   Overcast
2:27 PM 39.2 °F 35.0 °F 35.6 °F 87% 30.14 in 8.0 mi WNW 5.8 mph - N/A   Overcast
2:53 PM 37.9 °F 33.5 °F 36.0 °F 93% 30.16 in 9.0 mi NW 5.8 mph - N/A   Overcast
3:13 PM 37.4 °F 32.1 °F 35.6 °F 93% 30.16 in 2.5 mi NNW 6.9 mph - N/A   Overcast
3:35 PM 35.6 °F 31.7 °F 33.8 °F 93% 30.16 in 5.0 mi NNW 4.6 mph - N/A   Overcast
3:53 PM 36.0 °F 32.1 °F 34.0 °F 93% 30.16 in 9.0 mi NNW 4.6 mph - N/A   Overcast
4:53 PM 35.1 °F 31.0 °F 32.0 °F 89% 30.18 in 10.0 mi North 4.6 mph - N/A   Overcast
5:53 PM 34.0 °F 31.0 °F 30.9 °F 89% 30.17 in 5.0 mi North 3.5 mph - N/A   Overcast
6:53 PM 34.0 °F 29.8 °F 32.0 °F 92% 30.17 in 7.0 mi NE 4.6 mph - N/A   Overcast
7:49 PM 33.8 °F 27.7 °F 32.0 °F 93% 30.12 in 2.0 mi NE 6.9 mph - N/A   Overcast
7:53 PM 33.1 °F 26.9 °F 32.0 °F 96% 30.15 in 1.8 mi NE 6.9 mph - N/A   Overcast
8:11 PM 33.8 °F 27.0 °F 32.0 °F 93% 30.11 in 3.0 mi NE 8.1 mph - N/A   Overcast
8:25 PM 33.8 °F 29.6 °F 32.0 °F 93% 30.10 in 2.0 mi NE 4.6 mph - N/A   Overcast
8:53 PM 33.1 °F 28.7 °F 32.0 °F 96% 30.13 in 2.5 mi ENE 4.6 mph - N/A   Overcast
9:07 PM 33.8 °F 28.6 °F 30.2 °F 87% 30.09 in 4.0 mi NNE 5.8 mph - N/A   Overcast
9:53 PM 32.0 °F 25.6 °F 30.9 °F 96% 30.08 in 5.0 mi NE 6.9 mph - N/A   Overcast
10:44 PM 33.8 °F 30.8 °F 30.2 °F 87% 30.10 in 4.0 mi NW 3.5 mph - 0.00 in Rain Light Freezing Rain
10:53 PM 33.1 °F 30.0 °F 30.9 °F 92% 30.12 in 5.0 mi North 3.5 mph - 0.00 in Rain Light Freezing Rain
11:53 PM 33.1 °F 27.7 °F 30.9 °F 92% 30.06 in 7.0 mi NNE 5.8 mph - 0.03 in Rain Light Freezing Rain